Regional Weather Roundup
Issued by NWS

Home | Current Version | Previous Version | Graphics & Text | Print | Product List | Glossary On
Versions: 1 2 3 4 5 6 7 8 9 10 11 12 13 14 15 16 17 18 19 20 21 22 23 24 25 26 27 28 29 30 31 32 33 34 35 36 37 38 39 40 41 42 43 44 45 46 47 48 49 50
000
ASUS45 KPSR 260610
RWRAZ

ARIZONA HOURLY REGIONAL WEATHER ROUNDUP
NATIONAL WEATHER SERVICE PHOENIX AZ
1100 PM MST THU MAY 25 2017

NOTE: FAIR INDICATES FEW OR NO CLOUDS BELOW 12,000 FEET WITH NO
SIGNIFICANT WEATHER AND/OR OBSTRUCTIONS TO VISIBILITY.

AZZ001>003-036-260700-
NORTHWEST ARIZONA

CITY           SKY/WX    TMP DP  RH WIND       PRES   REMARKS
BULLHEAD CITY  CLEAR     90  19   7 SE18      29.57S
KINGMAN        CLEAR     74  23  15 SW21      29.76R
6HR MIN TEMP:  71; 6HR MAX TEMP:  89;

$$

AZZ004>008-015-016-018-260700-
NORTH CENTRAL ARIZONA

CITY           SKY/WX    TMP DP  RH WIND       PRES   REMARKS
GRAND CANYON   CLEAR     56  10  16 SW14      29.96S
6HR MIN TEMP:  56; 6HR MAX TEMP:  73;

WILLIAMS       CLEAR     59  14  17 S12G22    30.00S
PRESCOTT       CLEAR     66  24  20 S8        29.93R
6HR MIN TEMP:  65; 6HR MAX TEMP:  80;

FLAGSTAFF      CLEAR     56   9  15 SW14      29.99F
6HR MIN TEMP:  56; 6HR MAX TEMP:  69;

PAYSON         CLEAR     68  19  15 VRB8      29.99R
PAGE           CLEAR     77  17  10 SW8       29.74R
6HR MIN TEMP:  75; 6HR MAX TEMP:  87;

$$

AZZ009>014-017-260700-
NORTHEAST ARIZONA

CITY           SKY/WX    TMP DP  RH WIND       PRES   REMARKS
WINSLOW        CLEAR     60  16  18 S8        29.91R
6HR MIN TEMP:  59; 6HR MAX TEMP:  83;

SAINT JOHNS    CLEAR     63  12  13 VRB3      29.97R
6HR MIN TEMP:  59; 6HR MAX TEMP:  80;

WINDOW ROCK    CLEAR     59  11  15 SW10      30.01R
6HR MIN TEMP:  58; 6HR MAX TEMP:  77;

SHOW LOW       CLEAR     59  14  17 S13       30.02S
$$

AZZ540-542>544-546-548-260700-
GREATER PHOENIX AREA

CITY           SKY/WX    TMP DP  RH WIND       PRES   REMARKS
PHOENIX        PTCLDY    85  20   9 S9        29.71R
6HR MIN TEMP:  85; 6HR MAX TEMP:  99;

BUCKEYE        CLEAR     75  28  17 CALM      29.73R
LUKE AFB       CLEAR     79  31  17 SW13      29.71R
6HR MIN TEMP:  79; 6HR MAX TEMP:  98; 6HR PCP: TRACE;

DEER VALLEY    CLEAR     81  20  10 SW9       29.74R
6HR MIN TEMP:  80; 6HR MAX TEMP:  96;

SCOTTSDALE     CLEAR     83  18   9 CALM      29.76R
6HR MIN TEMP:  83; 6HR MAX TEMP:  97;

MESA-GATEWAY   PTCLDY    84  19   9 S20G26    29.76R
$$

AZZ539-553-260700-
SOUTHWEST MARICOPA COUNTY AND PINAL COUNTY

CITY           SKY/WX    TMP DP  RH WIND       PRES   REMARKS
CASA GRANDE    CLEAR     78  26  14 S8        29.78R
6HR MIN TEMP:  78; 6HR MAX TEMP:  97;

GILA BEND      FAIR      82  28  14 S18       29.69S
6HR MIN TEMP:  82; 6HR MAX TEMP:  98;

$$

AZZ503-504-507>509-260700-
SOUTHEAST ARIZONA

CITY           SKY/WX    TMP DP  RH WIND       PRES   REMARKS
TUCSON         CLOUDY    80  18  10 SW8       29.89R
6HR MIN TEMP:  79; 6HR MAX TEMP:  93;

DAVIS-MONTHAN  CLEAR     80  16   9 S9        29.89R
6HR MIN TEMP:  78; 6HR MAX TEMP:  91;

NOGALES        MOCLDY    71  16  12 SE7       29.97S
6HR MIN TEMP:  71; 6HR MAX TEMP:  89;

SIERRA VISTA   PTCLDY    71  18  13 S8        30.03R
6HR MIN TEMP:  70; 6HR MAX TEMP:  86;

DOUGLAS        PTCLDY    74  31  20 SW15      29.99R
6HR MIN TEMP:  74; 6HR MAX TEMP:  87;

SAFFORD        CLEAR     72  15  11 N7        29.85R
6HR MIN TEMP:  71; 6HR MAX TEMP:  92;

$$

AZZ532-260700-
SOUTHWEST ARIZONA

CITY           SKY/WX    TMP DP  RH WIND       PRES   REMARKS
YUMA           CLEAR     76  38  25 W3        29.70R
6HR MIN TEMP:  75; 6HR MAX TEMP: 100;

$$

CAZ041-043-047-048-061-525>527-560>570-260700-
SOUTHERN CALIFORNIA

CITY           SKY/WX    TMP DP  RH WIND       PRES   REMARKS
DOWNTOWN L.A.  CLOUDY    63  52  67 CALM      29.91R
6HR MIN TEMP:  62; 6HR MAX TEMP:  68;

L.A. AIRPORT   MOCLDY    61  54  77 SW8       29.92R
6HR MIN TEMP:  61; 6HR MAX TEMP:  66;

SAN DIEGO      CLOUDY    64  51  62 SW6       29.95R
6HR MIN TEMP:  63; 6HR MAX TEMP:  67;

BURBANK        CLOUDY    59  49  69 S6        29.91R
6HR MIN TEMP:  59; 6HR MAX TEMP:  66;

ONTARIO        CLOUDY    59  49  69 W14       29.91R
6HR MIN TEMP:  58; 6HR MAX TEMP:  70;

RIVERSIDE      CLOUDY    59  51  75 W7        29.91R
6HR MIN TEMP:  59; 6HR MAX TEMP:  68;

PALM SPRINGS   CLEAR     74  42  31 NW15      29.66R
6HR MIN TEMP:  73; 6HR MAX TEMP:  93;

EL CENTRO NAS  PTCLDY    69  42  37 W24G35    29.70R
6HR MIN TEMP:  69; 6HR MAX TEMP:  93;

IMPERIAL       LGT RAIN  69  44  40 W23G33    29.65R
6HR MIN TEMP:  69; 6HR MAX TEMP:  94; 6HR PCP: TRACE;

BLYTHE         CLEAR     79  42  26 SW18      29.63R
6HR MIN TEMP:  79; 6HR MAX TEMP:  99;

NEEDLES        CLEAR     88  24  10 SW14      29.60R
6HR MIN TEMP:  88; 6HR MAX TEMP: 104;

$$

NVZ020-UTZ003-260700-
SOUTHERN NEVADA-UTAH

CITY           SKY/WX    TMP DP  RH WIND       PRES   REMARKS
LAS VEGAS      PTCLDY    82  16   8 S14G21    29.59R
6HR MIN TEMP:  82; 6HR MAX TEMP:  97;

SALT LAKE CITY CLEAR     59  34  39 E7        29.74S
6HR MIN TEMP:  57; 6HR MAX TEMP:  69;

$$

NMZ009-TXZ055-260700-
NEW MEXICO-WEST TEXAS

CITY           SKY/WX    TMP DP  RH WIND       PRES   REMARKS
ALBUQUERQUE    CLOUDY    68   9  10 SW9       29.94R
6HR MIN TEMP:  68; 6HR MAX TEMP:  84;

EL PASO        MOCLDY    83  21  10 W16       29.91R
6HR MIN TEMP:  83; 6HR MAX TEMP:  93;

$$


........................KEY........................
SKY/WX - SKY CONDITION/WEATHER
TMP    - TEMPERATURE IN FAHRENHEIT
DP     - DEW POINT IN FAHRENHEIT
RH     - RELATIVE HUMIDITY IN PERCENT
WIND   - DIRECTION AND SPEED IN MILES PER HOUR (MPH)
VRB    - VARIABLE WIND DIRECTION
PRES   - MEAN SEA LEVEL PRESSURE IN INCHES OF MERCURY
         F - FALLING PRESSURE   R - RISING PRESSURE
         S - STEADY PRESSURE
VSB    - VISIBILITY IN MILES
HX     - HEAT INDEX IN FAHRENHEIT
WCI    - WIND CHILL INDEX IN FAHRENHEIT
TC     - TEMPERATURE IN CELSIUS WHICH IS ALSO KNOWN AS
         TEMPERATURE IN CENTIGRADE
AFB    - AIR FORCE BASE
         LUKE AFB IS LUKE AIR FORCE BASE
         DAVIS-MONTHAN IS DAVIS-MONTHAN AIR FORCE BASE
NAS    - NAVAL AIR STATION
         EL CENTRO NAS IS EL CENTRO NAVAL AIR STATION
N/A    - NOT AVAILABLE




USA.gov is the U.S. government's official web portal to all federal, state and local government web resources and services.